Weather History for KDRA - May, 2014

Change the Weather History Date:

Thursday, May 1, 2014

  Actual Average Record
Temperature  
Mean Temperature 68 °F -  
Max Temperature 84 °F 76 °F 93 °F (2001)
Min Temperature 53 °F 49 °F 37 °F (2002)
Cooling Degree Days 4    
Growing Degree Days 18 (Base 50)    
Moisture  
Dew Point 4 °F    
Average Humidity 8    
Maximum Humidity 14    
Minimum Humidity 4    
Precipitation  
Precipitation 0.00 in - - ()
Sea Level Pressure  
Sea Level Pressure 30.08 in    
Wind  
Wind Speed 10 mph (ENE)    
Max Wind Speed 15 mph    
Max Gust Speed 20 mph    
Visibility 10 miles    
Events      
Averages and records for this station are not official NWS values.
T = Trace of Precipitation, MM = Missing Value Source: NWS Daily Summary

Daily Weather History Graph

Daily Weather History Graph

Search for Another Location

Airport or City:

Trip Planner

Search our weather history database for the weather conditions in past years. The results will help you decide how hot, cold, wet, or windy it might be!

Date:

Astronomy

May. 01, 2014 Rise Set
Actual Time 5:50 AM PDT 7:32 PM PDT
Civil Twilight 5:22 AM PDT 8:00 PM PDT
Nautical Twilight 4:49 AM PDT 8:33 PM PDT
Astronomical Twilight 4:13 AM PDT 9:09 PM PDT
Moon 7:43 AM PDT (5/1) 10:07 PM PDT (5/1)
Length of Visible Light 14h 37m
Length of Day
13h 42m
Waxing Crescent, 7% of the Moon is Illuminated
May 1
Waxing Crescent
May 6
First Quarter
May 14
Full
May 21
Last Quarter
May 28
New

Hourly Weather History & Observations

Time (PDT) Temp. Dew Point Humidity Pressure Visibility Wind Dir Wind Speed Gust Speed Precip Events Conditions
12:52 AM 64.0 °F -0.0 °F 8% 30.13 in 10.0 mi East 15.0 mph - N/A   Clear
1:52 AM 63.0 °F 1.0 °F 8% 30.12 in 10.0 mi East 12.7 mph - N/A   Clear
2:52 AM 62.1 °F 3.9 °F 10% 30.13 in 10.0 mi East 15.0 mph - N/A   Clear
3:52 AM 57.9 °F 5.0 °F 12% 30.14 in 10.0 mi East 10.4 mph - N/A   Clear
4:52 AM 59.0 °F 6.1 °F 12% 30.14 in 10.0 mi NE 9.2 mph - N/A   Clear
5:52 AM 55.0 °F 6.1 °F 14% 30.15 in 10.0 mi NNE 12.7 mph - N/A   Clear
6:52 AM 57.9 °F 7.0 °F 13% 30.17 in 10.0 mi NE 12.7 mph - N/A   Clear
7:52 AM 63.0 °F 9.0 °F 12% 30.17 in 10.0 mi NE 13.8 mph - N/A   Clear
8:52 AM 68.0 °F 9.0 °F 10% 30.17 in 10.0 mi NNE 15.0 mph - N/A   Partly Cloudy
9:52 AM 71.1 °F 6.1 °F 8% 30.17 in 10.0 mi East 13.8 mph - N/A   Clear
10:52 AM 73.0 °F 5.0 °F 7% 30.16 in 10.0 mi East 9.2 mph 19.6 mph N/A   Clear
11:52 AM 75.0 °F 3.9 °F 6% 30.13 in 10.0 mi NE 10.4 mph 16.1 mph N/A   Clear
12:52 PM 77.0 °F 1.9 °F 5% 30.10 in 10.0 mi NNE 11.5 mph - N/A   Clear
1:52 PM 80.1 °F 1.0 °F 5% 30.08 in 10.0 mi NE 8.1 mph - N/A   Clear
2:52 PM 82.0 °F 1.0 °F 4% 30.04 in 10.0 mi North 5.8 mph - N/A   Clear
3:52 PM 82.0 °F -0.9 °F 4% 30.01 in 10.0 mi ENE 3.5 mph - N/A   Clear
4:52 PM 82.9 °F -0.9 °F 4% 29.99 in 10.0 mi SW 8.1 mph - N/A   Clear
5:52 PM 82.0 °F -0.9 °F 4% 29.97 in 10.0 mi Variable 3.5 mph - N/A   Clear
6:52 PM 81.0 °F 1.9 °F 5% 29.95 in 10.0 mi WSW 8.1 mph - N/A   Clear
7:52 PM 73.9 °F 1.9 °F 6% 29.97 in 10.0 mi SW 5.8 mph - N/A   Clear
8:52 PM 70.0 °F 6.1 °F 8% 29.99 in 10.0 mi Calm Calm - N/A   Clear
9:52 PM 64.9 °F 6.1 °F 10% 30.00 in 10.0 mi NE 3.5 mph - N/A   Clear
10:52 PM 62.1 °F 7.0 °F 11% 30.00 in 10.0 mi Calm Calm - N/A   Clear
11:52 PM 59.0 °F 7.0 °F 13% 30.00 in 10.0 mi East 4.6 mph - N/A   Clear